San Antonio, TX

11:46 AM CST on December 18, 2017 (GMT -0600)
San Antonio International

Weather History for KSAT - March, 2014

Change the Weather History Date:

Thursday, March 6, 2014

  Actual Average Record
Temperature  
Mean Temperature 55 °F 60 °F  
Max Temperature 66 °F 71 °F 100 °F (1991)
Min Temperature 43 °F 49 °F 24 °F (1966)
Degree Days  
Heating Degree Days 10 7  
Month to date heating degree days 82 43  
Since 1 July heating degree days 1416 1344  
Cooling Degree Days 0 2  
Month to date cooling degree days 2 7  
Year to date cooling degree days 67 33  
Growing Degree Days 4 (Base 50)    
Moisture  
Dew Point 38 °F    
Average Humidity 63    
Maximum Humidity 92    
Minimum Humidity 34    
Precipitation  
Precipitation 0.00 in 0.08 in 1.04 in (1970)
Month to date precipitation 0.01 0.47  
Year to date precipitation 0.66 4.02  
Snow  
Snow 0.00 in - - ()
Month to date snowfall 0.0  
Since 1 July snowfall 0.4  
Snow Depth 0.00 in    
Sea Level Pressure  
Sea Level Pressure 30.13 in    
Wind  
Wind Speed 7 mph (North)    
Max Wind Speed 16 mph    
Max Gust Speed 20 mph    
Visibility 10 miles    
Events      
T = Trace of Precipitation, MM = Missing Value Source: NWS Daily Summary

Daily Weather History Graph

Daily Weather History Graph

Search for Another Location

Airport or City:

Trip Planner

Search our weather history database for the weather conditions in past years. The results will help you decide how hot, cold, wet, or windy it might be!

Date:

Astronomy

Mar. 06, 2014 Rise Set
Actual Time 6:53 AM CST 6:36 PM CST
Civil Twilight 6:30 AM CST 7:00 PM CST
Nautical Twilight 6:02 AM CST 7:28 PM CST
Astronomical Twilight 5:34 AM CST 7:55 PM CST
Moon 10:28 AM CST (3/6) No Moon Set
Length of Visible Light 12h 30m
Length of Day
11h 42m
Waxing Crescent, 32% of the Moon is Illuminated
Mar 6
Waxing Crescent
Mar 8
First Quarter
Mar 16
Full
Mar 23
Last Quarter
Mar 30
New

Hourly Weather History & Observations

Time (CST) Temp. Windchill Dew Point Humidity Pressure Visibility Wind Dir Wind Speed Gust Speed Precip Events Conditions
12:51 AM 45.0 °F 41.8 °F 42.1 °F 90% 30.14 in 8.0 mi NW 5.8 mph - N/A   Partly Cloudy
1:51 AM 46.0 °F 43.9 °F 42.1 °F 86% 30.14 in 8.0 mi WNW 4.6 mph - N/A   Clear
2:51 AM 48.0 °F - 42.1 °F 80% 30.12 in 10.0 mi North 11.5 mph - N/A   Clear
3:51 AM 46.9 °F - 42.1 °F 83% 30.13 in 10.0 mi NW 6.9 mph - N/A   Clear
4:51 AM 46.0 °F 41.0 °F 41.0 °F 83% 30.14 in 10.0 mi NNW 10.4 mph - N/A   Clear
5:51 AM 45.0 °F 41.2 °F 39.0 °F 80% 30.16 in 10.0 mi NNW 6.9 mph - N/A   Clear
6:51 AM 43.0 °F 38.8 °F 37.9 °F 82% 30.19 in 9.0 mi NW 6.9 mph - N/A   Clear
7:51 AM 45.0 °F 41.2 °F 37.9 °F 76% 30.21 in 10.0 mi NNW 6.9 mph - N/A   Clear
8:51 AM 48.9 °F - 39.0 °F 69% 30.22 in 10.0 mi NNW 11.5 mph - N/A   Clear
9:51 AM 52.0 °F - 37.9 °F 59% 30.23 in 10.0 mi North 9.2 mph - N/A   Clear
10:51 AM 54.0 °F - 37.9 °F 55% 30.22 in 9.0 mi North 10.4 mph - N/A   Partly Cloudy
11:51 AM 57.0 °F - 39.0 °F 51% 30.22 in 10.0 mi NNE 9.2 mph 16.1 mph N/A   Partly Cloudy
12:51 PM 57.9 °F - 37.9 °F 47% 30.19 in 10.0 mi NNE 10.4 mph - N/A   Clear
1:51 PM 61.0 °F - 37.9 °F 42% 30.15 in 10.0 mi North 10.4 mph - N/A   Partly Cloudy
2:51 PM 63.0 °F - 37.9 °F 40% 30.12 in 10.0 mi North - - N/A   Partly Cloudy
3:51 PM 64.0 °F - 36.0 °F 35% 30.08 in 10.0 mi North 4.6 mph - N/A   Partly Cloudy
4:51 PM 64.0 °F - 36.0 °F 35% 30.06 in 10.0 mi Variable 3.5 mph - N/A   Mostly Cloudy
5:51 PM 61.0 °F - 35.1 °F 38% 30.04 in 10.0 mi East 4.6 mph - N/A   Mostly Cloudy
6:51 PM 57.0 °F - 36.0 °F 45% 30.04 in 10.0 mi East 6.9 mph - N/A   Mostly Cloudy
7:51 PM 54.0 °F - 37.0 °F 53% 30.05 in 10.0 mi East 5.8 mph - N/A   Mostly Cloudy
8:51 PM 51.1 °F - 37.0 °F 59% 30.07 in 10.0 mi SE 6.9 mph - N/A   Scattered Clouds
9:51 PM 51.1 °F - 37.0 °F 59% 30.06 in 10.0 mi ENE 3.5 mph - N/A   Partly Cloudy
10:51 PM 48.9 °F - 37.0 °F 64% 30.06 in 10.0 mi Calm Calm - N/A   Partly Cloudy
11:51 PM 48.0 °F - 37.9 °F 68% 30.05 in 10.0 mi Calm Calm - N/A   Partly Cloudy